Weather History for KOXI - September, 2013

Change the Weather History Date:

Thursday, September 12, 2013

  Actual Average (KVPZ) Record (KVPZ)
Temperature  
Mean Temperature 68 °F 65 °F  
Max Temperature 96 °F 76 °F 89 °F (2005)
Min Temperature 56 °F 54 °F 46 °F (2007)
Degree Days  
Heating Degree Days 0 2  
Month to date heating degree days 19  
Since 1 July heating degree days 36  
Cooling Degree Days 4 2  
Month to date cooling degree days 41  
Year to date cooling degree days 677  
Growing Degree Days 18 (Base 50)    
Moisture  
Dew Point 61 °F    
Average Humidity 76    
Maximum Humidity 98    
Minimum Humidity 37    
Precipitation  
Precipitation 0.00 in 0.10 in 0.45 in (2000)
Month to date precipitation 1.45  
Year to date precipitation 26.99  
Sea Level Pressure  
Sea Level Pressure 29.97 in    
Wind  
Wind Speed 7 mph (WNW)    
Max Wind Speed 22 mph    
Max Gust Speed 33 mph    
Visibility 9 miles    
Events      
T = Trace of Precipitation, MM = Missing Value Source: NWS Daily Summary

Daily Weather History Graph

Daily Weather History Graph

Search for Another Location

Airport or City:

Trip Planner

Search our weather history database for the weather conditions in past years. The results will help you decide how hot, cold, wet, or windy it might be!

Date:

Astronomy

Sep. 12, 2013 Rise Set
Actual Time 6:24 AM CDT 7:00 PM CDT
Civil Twilight 5:56 AM CDT 7:28 PM CDT
Nautical Twilight 5:23 AM CDT 8:01 PM CDT
Astronomical Twilight 4:49 AM CDT 8:34 PM CDT
Moon 1:55 PM CDT (9/12) 11:51 PM CDT (9/12)
Length of Visible Light 13h 31m
Length of Day
12h 36m
Waxing Crescent, 50% of the Moon is Illuminated
Sep 12
Waxing Crescent
Sep 12
First Quarter
Sep 19
Full
Sep 26
Last Quarter
Oct 4
New

Hourly Weather History & Observations

Time (CDT) Temp. Heat Index Dew Point Humidity Pressure Visibility Wind Dir Wind Speed Gust Speed Precip Events Conditions
12:15 AM 70.7 °F - 69.1 °F 95% 30.00 in 7.0 mi WSW 10.4 mph - N/A   Overcast
12:35 AM 70.2 °F - 68.9 °F 96% 29.99 in 7.0 mi SW 10.4 mph - N/A   Mostly Cloudy
12:55 AM 70.0 °F - 68.9 °F 96% 30.00 in 10.0 mi SW 12.7 mph - N/A   Mostly Cloudy
1:15 AM 69.6 °F - 68.5 °F 96% 29.99 in 10.0 mi WSW 5.8 mph - N/A   Overcast
1:35 AM 69.3 °F - 68.4 °F 97% 29.98 in 10.0 mi SW 4.6 mph - N/A   Overcast
1:55 AM 69.1 °F - 68.4 °F 98% 29.98 in 7.0 mi WSW 3.5 mph - N/A   Overcast
2:15 AM 69.1 °F - 68.4 °F 98% 29.98 in 7.0 mi WSW 4.6 mph - N/A   Mostly Cloudy
2:35 AM 69.1 °F - 68.4 °F 98% 29.97 in 7.0 mi WSW 3.5 mph - N/A   Scattered Clouds
2:55 AM 68.9 °F - 68.2 °F 98% 29.97 in 7.0 mi WSW 3.5 mph - N/A   Clear
3:15 AM 68.9 °F - 68.2 °F 98% 29.97 in 5.0 mi WSW 4.6 mph - N/A   Scattered Clouds
3:35 AM 68.9 °F - 68.0 °F 97% 29.96 in 5.0 mi WSW 4.6 mph - N/A   Scattered Clouds
3:55 AM 68.5 °F - 68.0 °F 98% 29.96 in 5.0 mi SW 5.8 mph - N/A   Clear
4:15 AM 68.2 °F - 67.5 °F 98% 29.96 in 7.0 mi West 4.6 mph - N/A   Clear
4:35 AM 68.2 °F - 67.5 °F 98% 29.96 in 10.0 mi West 5.8 mph - N/A   Clear
4:55 AM 68.4 °F - 67.6 °F 98% 29.97 in 10.0 mi West 8.1 mph - N/A   Scattered Clouds
5:15 AM 68.5 °F - 68.0 °F 98% 29.97 in 7.0 mi West 6.9 mph - N/A   Scattered Clouds
5:35 AM 68.9 °F - 68.2 °F 98% 29.97 in 7.0 mi West 4.6 mph - N/A   Scattered Clouds
5:55 AM 68.9 °F - 68.0 °F 97% 29.97 in 5.0 mi West 4.6 mph - N/A   Clear
6:15 AM 68.9 °F - 68.0 °F 97% 29.98 in 4.0 mi West 4.6 mph - N/A   Clear
6:35 AM 68.7 °F - 68.0 °F 98% 29.98 in 2.5 mi WNW 5.8 mph - N/A   Clear
6:55 AM 68.4 °F - 67.6 °F 98% 29.98 in 2.5 mi NW 3.5 mph - N/A   Clear
7:15 AM 68.2 °F - 67.5 °F 98% 29.98 in 3.0 mi NW 3.5 mph - N/A   Clear
7:35 AM 68.4 °F - 67.6 °F 98% 29.98 in 4.0 mi NW 3.5 mph - N/A   Clear
7:55 AM 68.9 °F - 68.0 °F 97% 29.98 in 7.0 mi NNW 4.6 mph - N/A   Clear
8:15 AM 68.9 °F - 67.3 °F 95% 29.99 in 10.0 mi NNW 4.6 mph - N/A   Clear
8:35 AM 68.9 °F - 66.7 °F 93% 29.99 in 10.0 mi North 3.5 mph - N/A   Clear
8:55 AM 69.6 °F - 66.2 °F 89% 29.99 in 10.0 mi North 3.5 mph - N/A   Clear
9:15 AM 70.0 °F - 65.3 °F 85% 29.99 in 10.0 mi NNW 4.6 mph - N/A   Clear
9:35 AM 70.0 °F - 64.0 °F 81% 30.00 in 10.0 mi North 4.6 mph - N/A   Clear
9:55 AM 70.0 °F - 63.7 °F 80% 29.99 in 10.0 mi Calm Calm - N/A   Clear
10:15 AM 71.1 °F - 62.2 °F 74% 30.00 in 10.0 mi North 3.5 mph - N/A   Clear
10:35 AM 71.2 °F - 61.5 °F 71% 30.00 in 10.0 mi North 3.5 mph - N/A   Clear
10:55 AM 72.7 °F - 61.0 °F 67% 29.99 in 10.0 mi Calm Calm - N/A   Clear
11:15 AM 74.3 °F - 59.9 °F 61% 29.98 in 10.0 mi Calm Calm - N/A   Clear
11:35 AM 75.9 °F - 58.3 °F 54% 29.98 in 10.0 mi Calm Calm - N/A   Scattered Clouds
11:55 AM 77.4 °F - 57.4 °F 50% 29.98 in 10.0 mi West 6.9 mph - N/A   Scattered Clouds
12:15 PM 78.6 °F - 55.9 °F 46% 29.97 in 10.0 mi West 4.6 mph - N/A   Mostly Cloudy
12:35 PM 79.7 °F - 55.8 °F 44% 29.95 in 10.0 mi West 11.5 mph - N/A   Scattered Clouds
12:55 PM 80.6 °F 80.3 °F 53.8 °F 39% 29.95 in 10.0 mi West 6.9 mph - N/A   Scattered Clouds
1:15 PM 81.1 °F 80.6 °F 53.6 °F 38% 29.94 in 10.0 mi WSW 6.9 mph 16.1 mph N/A   Scattered Clouds
1:35 PM 81.7 °F 81.1 °F 54.5 °F 39% 29.93 in 10.0 mi West 10.4 mph 17.3 mph N/A   Scattered Clouds
1:55 PM 81.0 °F 80.6 °F 54.3 °F 40% 29.92 in 10.0 mi West 10.4 mph - N/A   Scattered Clouds
2:15 PM 81.7 °F 81.1 °F 54.5 °F 39% 29.91 in 10.0 mi WSW 11.5 mph - N/A   Scattered Clouds
2:35 PM 80.6 °F 80.7 °F 56.7 °F 44% 29.90 in 10.0 mi WSW 6.9 mph - N/A   Mostly Cloudy
2:55 PM 80.1 °F 80.4 °F 57.2 °F 45% 29.89 in 10.0 mi West 9.2 mph 16.1 mph N/A   Scattered Clouds
3:15 PM 80.4 °F 80.7 °F 57.0 °F 45% 29.88 in 10.0 mi West 8.1 mph - N/A   Scattered Clouds
3:35 PM 81.0 °F 80.9 °F 56.7 °F 43% 29.88 in 10.0 mi NNW 16.1 mph 24.2 mph N/A   Scattered Clouds
3:55 PM 80.8 °F 80.7 °F 55.4 °F 42% 29.89 in 10.0 mi NW 16.1 mph 27.6 mph N/A   Clear
4:15 PM 79.9 °F - 52.2 °F 38% 29.89 in 10.0 mi NNW 18.4 mph 27.6 mph N/A   Clear
4:35 PM 79.2 °F - 50.7 °F 37% 29.89 in 10.0 mi NW 16.1 mph 24.2 mph N/A   Clear
4:55 PM 78.4 °F - 50.2 °F 37% 29.90 in 10.0 mi NW 17.3 mph 25.3 mph N/A   Clear
5:15 PM 77.0 °F - 53.2 °F 44% 29.91 in 10.0 mi NNW 20.7 mph 28.8 mph N/A   Clear
5:35 PM 73.4 °F - 56.7 °F 56% 29.93 in 10.0 mi North 17.3 mph 33.4 mph N/A   Clear
5:55 PM 70.2 °F - 57.4 °F 64% 29.95 in 10.0 mi North 21.9 mph 27.6 mph N/A   Scattered Clouds
6:15 PM 68.5 °F - 56.1 °F 64% 29.96 in 10.0 mi North 15.0 mph 26.5 mph N/A   Scattered Clouds
6:35 PM 67.3 °F - 57.0 °F 70% 29.96 in 10.0 mi North 19.6 mph 23.0 mph N/A   Scattered Clouds
6:55 PM 66.2 °F - 55.2 °F 68% 29.97 in 10.0 mi North 10.4 mph 16.1 mph N/A   Scattered Clouds
7:15 PM 64.6 °F - 55.0 °F 71% 29.98 in 10.0 mi North 6.9 mph - N/A   Clear
7:35 PM 63.0 °F - 56.5 °F 79% 29.99 in 10.0 mi NNW 6.9 mph - N/A   Clear
7:55 PM 62.8 °F - 57.4 °F 82% 30.00 in 10.0 mi North 9.2 mph - N/A   Clear
8:15 PM 62.8 °F - 57.2 °F 82% 30.01 in 10.0 mi North 8.1 mph - N/A   Clear
8:35 PM 62.2 °F - 56.5 °F 81% 30.01 in 10.0 mi North 5.8 mph - N/A   Clear
8:55 PM 60.4 °F - 55.8 °F 85% 30.02 in 10.0 mi NNW 5.8 mph - N/A   Clear
9:15 PM 58.5 °F - 55.2 °F 89% 30.02 in 10.0 mi North 6.9 mph - N/A   Clear
9:35 PM 57.9 °F - 54.7 °F 89% 30.02 in 10.0 mi North 5.8 mph - N/A   Clear
9:55 PM 58.5 °F - 54.5 °F 87% 30.03 in 10.0 mi NNW 6.9 mph - N/A   Clear
10:15 PM 58.5 °F - 54.1 °F 86% 30.03 in 10.0 mi NNW 4.6 mph - N/A   Clear
10:35 PM 57.6 °F - 54.0 °F 88% 30.03 in 10.0 mi NW 4.6 mph - N/A   Clear
10:55 PM 57.2 °F - 54.0 °F 89% 30.03 in 10.0 mi NNW 5.8 mph - N/A   Clear
11:15 PM 56.5 °F - 54.0 °F 91% 30.04 in 10.0 mi North 6.9 mph - N/A   Clear
11:35 PM 57.6 °F - 54.1 °F 88% 30.05 in 10.0 mi North 8.1 mph - N/A   Clear
11:55 PM 58.3 °F - 53.6 °F 84% 30.05 in 10.0 mi North 6.9 mph - N/A   Clear